Weather in Blagodarnoye

Russia / Orenburg Oblast     52°12′19″N   55°49′20″E
temp.,
°C
wind,
m/s
gust,
m/s
humid.,
%
clouds,
%
prec.,
mm/h
press.,
hPa
HPBL,
m
7 march, sun
sun723:00−8e2288100 0.0 101321
02:00−8ne2396100 0.4 1010105
05:00−8nne4696100 1.3 1008212
08:00−8n5994100 0.9 1008299
11:00−9n6989100 1.1 1008360
14:00−9nnw61180100 0.0 1010577
17:00−9nw488650 0.0 1012297
20:00−15wnw33900 0.0 101423
8 march, mon
mon823:00−16sw239313 0.0 101521
02:00−16ssw469593 0.0 1015112
05:00−15s599897 0.1 1013252
08:00−11s71594100 0.2 1011589
11:00−7ssw101692100 0.8 1010911
14:00−4sw111793100 0.6 10091114
17:00−3sw91594100 1.4 10091098
20:00−3sw81495100 0.8 1010800
9 march, tue
tue923:00−3sw71496100 1.4 1010694
02:00−3ssw81495100 0.8 1009748
05:00−4ssw81594100 1.4 1008648
08:00−4ssw81495100 0.6 1008628
11:00−3sw71193100 0.9 1009756
14:00−2sw6996100 0.4 1009617
17:00−4nnw4596100 1.7 1009309
20:00−5ne3597100 0.7 1007177
10 march, wed
wed1023:00−4ese2797100 2.8 1006373
02:00−7nnw61094100 1.8 1005356
05:00−11nw5109497 1.9 1006281
08:00−15nw499685 0.0 1008159
11:00−14wnw479479 0.1 1010294
14:00−12wnw469299 0.0 1012413
17:00−13wnw479299 0.1 1012475
20:00−15wnw3896100 0.2 1014230
11 march, thu
thu1123:00−17wnw4896100 0.3 1016229
02:00−20nnw339995 0.1 101743
05:00−23nnw239885 0.1 101920
08:00−26nnw239647 0.0 102120
11:00−23nw249424 0.0 1022167
14:00−20wnw34900 0.0 1023314
17:00−19wnw369316 0.0 1024332
20:00−25w23930 0.0 102620